Bennington, VT

8:09 AM EST on December 15, 2019 (GMT -0500)
Morse State

Weather History for KDDH - September, 2019

Change the Weather History Date:

Sunday, September 15, 2019

  Actual Average Record
Temperature  
Mean Temperature 62 °F 59 °F  
Max Temperature 72 °F 71 °F 82 °F (2018)
Min Temperature 51 °F 48 °F 32 °F (2001)
Degree Days  
Heating Degree Days 3 6  
Month to date heating degree days 76 67  
Since 1 July heating degree days 111 139  
Cooling Degree Days 0 1  
Month to date cooling degree days 12 19  
Year to date cooling degree days 363 307  
Growing Degree Days 12 (Base 50)    
Moisture  
Dew Point 55 °F    
Average Humidity 77    
Maximum Humidity 100    
Minimum Humidity 53    
Precipitation  
Precipitation T in 0.11 in 1.54 in (2002)
Month to date precipitation 1.53 1.62  
Year to date precipitation 29.00 29.16  
Sea Level Pressure  
Sea Level Pressure 30.13 in    
Wind  
Wind Speed 5 mph (SW)    
Max Wind Speed 14 mph    
Max Gust Speed 18 mph    
Visibility 8 miles    
Events Rain    
T = Trace of Precipitation, MM = Missing Value Source: NWS Daily Summary

Daily Weather History Graph

Daily Weather History Graph

Search for Another Location

Airport or City:

Astronomy

Sep. 15, 2019 Rise Set
Actual Time 6:32 AM EDT 7:03 PM EDT
Civil Twilight 6:03 AM EDT 7:31 PM EDT
Nautical Twilight 5:30 AM EDT 8:05 PM EDT
Astronomical Twilight 4:55 AM EDT 8:39 PM EDT
Moon 8:08 PM EDT 7:40 AM EDT
Length of Visible Light 13h 27m
Length of Day
12h 30m
Full, 98% of the Moon is Illuminated
Sep 15
Full
Sep 21
Last Quarter
Sep 28
New
Oct 5
First Quarter
Oct 13
Full

Hourly Weather History & Observations

Time (EDT) Temp. Dew Point Humidity Pressure Visibility Wind Dir Wind Speed Gust Speed Precip Events Conditions
12:09 AM 66.0 °F 60.1 °F 81% 30.16 in 10.0 mi SW 4.6 mph - N/A   Overcast
12:54 AM 64.9 °F 59.0 °F 81% 30.16 in 10.0 mi SSW 4.6 mph - N/A   Overcast
1:54 AM 63.0 °F 59.0 °F 87% 30.16 in 10.0 mi SW 3.5 mph - 0.00 in   Overcast
3:54 AM 57.0 °F 55.0 °F 93% 30.15 in 8.0 mi Calm Calm - N/A   Scattered Clouds
4:15 AM 55.9 °F 54.0 °F 93% 30.16 in 2.5 mi Calm Calm - N/A   Clear
4:54 AM 54.0 °F 53.1 °F 97% 30.16 in 10.0 mi SSW 4.6 mph - N/A   Partly Cloudy
5:24 AM 55.0 °F 53.1 °F 93% 30.16 in 1.8 mi Calm Calm - N/A   Clear
5:47 AM 54.0 °F 52.0 °F 93% 30.17 in 2.0 mi SSW 3.5 mph - N/A   Clear
5:54 AM 52.0 °F 51.1 °F 97% 30.17 in 1.2 mi SSW 3.5 mph - N/A   Clear
6:14 AM 51.1 °F 50.0 °F 96% 30.17 in 1.0 mi SW 3.5 mph - N/A   Mist
6:20 AM 52.0 °F 50.0 °F 93% 30.17 in 2.0 mi SW 3.5 mph - N/A   Clear
6:33 AM 52.0 °F 51.1 °F 97% 30.17 in 6.0 mi SW 4.6 mph - N/A   Clear
6:54 AM 55.0 °F 53.1 °F 93% 30.17 in 10.0 mi SSW 4.6 mph - N/A   Clear
7:54 AM 57.0 °F 55.9 °F 96% 30.17 in 9.0 mi Calm Calm - N/A   Clear
8:18 AM 61.0 °F 57.0 °F 87% 30.17 in 10.0 mi SSW 3.5 mph - N/A   Mostly Cloudy
8:54 AM 61.0 °F 55.9 °F 83% 30.17 in 10.0 mi Variable 5.8 mph - N/A   Overcast
9:33 AM 62.1 °F 55.0 °F 78% 30.16 in 10.0 mi West 6.9 mph - N/A   Scattered Clouds
9:54 AM 64.0 °F 55.9 °F 75% 30.16 in 10.0 mi WSW 6.9 mph - N/A   Partly Cloudy
10:54 AM 66.9 °F 57.0 °F 70% 30.15 in 10.0 mi WSW 8.1 mph - N/A   Scattered Clouds
11:54 AM 69.1 °F 55.9 °F 63% 30.14 in 10.0 mi NW 8.1 mph - N/A   Scattered Clouds
12:54 PM 69.1 °F 54.0 °F 58% 30.13 in 10.0 mi West 9.2 mph - N/A   Mostly Cloudy
1:54 PM 69.1 °F 54.0 °F 58% 30.12 in 10.0 mi Variable 4.6 mph - N/A   Mostly Cloudy
2:54 PM 72.0 °F 55.0 °F 55% 30.10 in 10.0 mi Variable 6.9 mph - N/A   Mostly Cloudy
3:54 PM 72.0 °F 54.0 °F 53% 30.08 in 10.0 mi Variable 6.9 mph - N/A   Scattered Clouds
4:54 PM 70.0 °F 54.0 °F 57% 30.09 in 10.0 mi West 6.9 mph - N/A   Overcast
5:54 PM 68.0 °F 55.0 °F 63% 30.08 in 10.0 mi West 4.6 mph - 0.00 in Rain Light Rain
6:54 PM 64.9 °F 57.0 °F 75% 30.07 in 10.0 mi Calm Calm - 0.00 in   Mostly Cloudy
7:54 PM 64.9 °F 55.0 °F 70% 30.07 in 10.0 mi SSW 4.6 mph - N/A   Overcast
8:54 PM 64.9 °F 55.0 °F 70% 30.07 in 10.0 mi SW 4.6 mph - N/A   Overcast
9:54 PM 64.0 °F 55.9 °F 75% 30.07 in 10.0 mi SW 6.9 mph - 0.00 in   Overcast
10:54 PM 64.0 °F 55.9 °F 75% 30.06 in 10.0 mi WSW 8.1 mph - N/A   Overcast
11:54 PM 63.0 °F 55.9 °F 78% 30.06 in 10.0 mi Calm Calm - N/A   Overcast